Погода в Красноармейском

Россия / Саратовская область     51°12′43″N   44°24′02″E
темп.,
°C
ветер,
м/с
пор.,
м/с
влажн.,
%
обл.,
%
осадки,
мм/ч
давл.,
гПа
погр.,
м
17 апреля, сб
сб1701:00+13сз228195 0.1 101824
04:00+12ссз118053 0.2 101810
07:00+11всв2280100 0.0 101831
10:00+16юв465158 0.0 1018546
13:00+19ю5746100 0.0 10171786
16:00+14юз6768100 0.6 1018680
19:00+9зюз4885100 1.2 1019552
22:00+9з358820 2.1 1020493
18 апреля, вс
вс1801:00+7зсз35930 0.0 102087
04:00+6зсз33910 0.0 102040
07:00+6зсз23900 0.0 102078
10:00+12з446349 0.0 1020658
13:00+15з444799 0.0 10191425
16:00+15зсз434299 0.0 10191657
19:00+14зсз345291 0.0 1019145
22:00+10сз356581 0.0 102066
19 апреля, пн
пн1901:00+9ссз3579100 0.0 102091
04:00+8ссв3387100 0.0 102064
07:00+8св3486100 0.0 1019117
10:00+12всв4573100 0.0 1019507
13:00+14в445799 0.4 10181380
16:00+13в4562100 0.9 10171318
19:00+11в71172100 0.4 1017735
22:00+10в71482100 0.7 1017673
20 апреля, вт
вт2001:00+9в81488100 1.2 1017605
04:00+8в81592100 1.9 1017628
07:00+7в91691100 1.8 1017663
10:00+7в91688100 2.2 1016649
13:00+8вюв101884100 0.4 1016766
16:00+9вюв91892100 7.3 1015838
19:00+10вюв122188100 3.9 1012914
22:00+10юв122288100 9.8 10131012
21 апреля, ср
ср2101:00+9юв122184100 5.9 1013976
04:00+10ююв10179194 6.4 1012960
07:00+9ююв81487100 0.3 1014918
10:00+10ю81283100 0.3 10161083
13:00+10ю71080100 0.1 10171011
16:00+12ю6872100 0.2 10181190
19:00+11ююз367896 0.4 1019224
22:00+9юв4691100 0.5 1021176